Waarnemingen

Advertentie
Mijn weer
La Coruna, Spanje (8001): temperatuur & dauwpunt: 07.08.2020 07:00:00 - 13.08.2020 07:00:00 (CEST)La Coruna, Spanje (8001): windsnelheid: 07.08.2020 07:00:00 - 13.08.2020 07:00:00 (CEST)La Coruna, Spanje (8001): windrichting: 07.08.2020 07:00:00 - 13.08.2020 07:00:00 (CEST)La Coruna, Spanje (8001): luchtdruk: 07.08.2020 07:00:00 - 13.08.2020 07:00:00 (CEST)La Coruna, Spanje (8001): zicht: 07.08.2020 07:00:00 - 13.08.2020 07:00:00 (CEST)La Coruna, Spanje (8001): neerslag: 07.08.2020 07:00:00 - 13.08.2020 07:00:00 (CEST)
Datum & Tijd tt [°C] td [°C] ff [km/u] ff [kn] dd ppp [hPa] vv [km] rr [mm]
13.08.2020 07:00:00 - - - - - - - -
13.08.2020 06:00:00 - - - - - - - -
13.08.2020 05:00:00 - - - - - - - -
13.08.2020 04:00:00 - - - - - - - -
13.08.2020 03:00:00 - - - - - - - -
13.08.2020 02:00:00 - - - - - - - -
13.08.2020 01:00:00 - - - - - - - -
13.08.2020 00:00:00 - - - - - - - -
12.08.2020 23:00:00 - - - - - - - -
12.08.2020 22:00:00 - - - - - - - -
12.08.2020 21:00:00 - - - - - - - -
12.08.2020 20:00:00 - - - - - - - -
12.08.2020 19:00:00 - - - - - - - -
12.08.2020 18:00:00 - - - - - - - -
12.08.2020 17:00:00 - - - - - - - -
12.08.2020 16:00:00 - - - - - - - -
12.08.2020 15:00:00 - - - - - - - -
12.08.2020 14:00:00 - - - - - - - -
12.08.2020 13:00:00 - - - - - - - -
12.08.2020 12:00:00 - - - - - - - -
12.08.2020 11:00:00 - - - - - - - -
12.08.2020 10:00:00 - - - - - - - -
12.08.2020 09:00:00 - - - - - - - -
12.08.2020 08:00:00 - - - - - - - -
12.08.2020 07:00:00 - - - - - - - -
12.08.2020 06:00:00 - - - - - - - -
12.08.2020 05:00:00 - - - - - - - -
12.08.2020 04:00:00 - - - - - - - -
12.08.2020 03:00:00 - - - - - - - -
12.08.2020 02:00:00 - - - - - - - -
12.08.2020 01:00:00 - - - - - - - -
12.08.2020 00:00:00 - - - - - - - -
11.08.2020 23:00:00 - - - - - - - -
11.08.2020 22:00:00 - - - - - - - -
11.08.2020 21:00:00 - - - - - - - -
11.08.2020 20:00:00 - - - - - - - -
11.08.2020 19:00:00 - - - - - - - -
11.08.2020 18:00:00 - - - - - - - -
11.08.2020 17:00:00 - - - - - - - -
11.08.2020 16:00:00 - - - - - - - -
11.08.2020 15:00:00 - - - - - - - -
11.08.2020 14:00:00 - - - - - - - -
11.08.2020 13:00:00 - - - - - - - -
11.08.2020 12:00:00 - - - - - - - -
11.08.2020 11:00:00 - - - - - - - -
11.08.2020 10:00:00 - - - - - - - -
11.08.2020 09:00:00 - - - - - - - -
11.08.2020 08:00:00 - - - - - - - -
11.08.2020 07:00:00 - - - - - - - -
11.08.2020 06:00:00 - - - - - - - -
11.08.2020 05:00:00 - - - - - - - -
11.08.2020 04:00:00 - - - - - - - -
11.08.2020 03:00:00 - - - - - - - -
11.08.2020 02:00:00 - - - - - - - -
11.08.2020 01:00:00 - - - - - - - -
11.08.2020 00:00:00 - - - - - - - -
10.08.2020 23:00:00 - - - - - - - -
10.08.2020 22:00:00 - - - - - - - -
10.08.2020 21:00:00 - - - - - - - -
10.08.2020 20:00:00 - - - - - - - -
10.08.2020 19:00:00 - - - - - - - -
10.08.2020 18:00:00 - - - - - - - -
10.08.2020 17:00:00 - - - - - - - -
10.08.2020 16:00:00 - - - - - - - -
10.08.2020 15:00:00 - - - - - - - -
10.08.2020 14:00:00 - - - - - - - -
10.08.2020 13:00:00 - - - - - - - -
10.08.2020 12:00:00 - - - - - - - -
10.08.2020 11:00:00 - - - - - - - -
10.08.2020 10:00:00 - - - - - - - -
10.08.2020 09:00:00 - - - - - - - -
10.08.2020 08:00:00 - - - - - - - -
10.08.2020 07:00:00 18,8 17,6 8 4 N 1014,5 20 0,0
10.08.2020 06:00:00 18,6 17,6 9 5 N 1014,5 19 0,0
10.08.2020 05:00:00 18,9 17,4 11 6 NNW 1014,8 15 -
10.08.2020 04:00:00 19,3 18,1 9 5 N 1015,0 20 0,0
10.08.2020 03:00:00 19,7 18,4 8 4 N 1015,3 20 0,0
10.08.2020 02:00:00 19,9 18,0 4 2 NNW 1015,7 15 -
10.08.2020 01:00:00 19,7 17,8 4 2 WNW 1015,9 20 0,0
10.08.2020 00:00:00 20,0 17,4 4 2 WNW 1016,2 20 0,0
09.08.2020 23:00:00 20,0 17,4 5 3 N 1016,3 15 -
09.08.2020 22:00:00 20,1 17,5 4 2 N 1016,3 20 0,0
09.08.2020 21:00:00 20,5 17,7 9 5 NNW 1016,4 20 0,0
09.08.2020 20:00:00 21,0 17,4 11 6 NNW 1015,9 20 -
09.08.2020 19:00:00 21,2 18,0 11 6 NNW 1016,1 20 0,0
09.08.2020 18:00:00 21,7 18,1 15 8 NNW 1016,4 20 0,0
09.08.2020 17:00:00 22,9 18,2 15 8 NNW 1016,8 20 -
09.08.2020 16:00:00 22,7 17,8 11 6 WNW 1016,9 20 0,0
09.08.2020 15:00:00 23,1 17,8 9 5 NNW 1017,1 20 0,0
09.08.2020 14:00:00 22,8 17,5 9 5 NNW 1017,1 20 -
09.08.2020 13:00:00 22,7 17,2 5 3 NNO 1017,3 20 0,0
09.08.2020 12:00:00 21,9 17,1 4 2 ONO 1017,4 20 0,0
09.08.2020 11:00:00 21,1 17,1 5 3 ONO 1017,5 18 -
09.08.2020 10:00:00 19,9 17,3 4 2 O 1017,7 19 0,0
09.08.2020 09:00:00 18,3 17,0 0 0 N 1017,4 19 0,0
09.08.2020 08:00:00 18,2 17,0 4 2 ONO 1017,4 16 -
09.08.2020 07:00:00 18,2 16,9 5 3 ONO 1017,4 20 0,0
09.08.2020 06:00:00 18,5 16,8 5 3 N 1017,5 20 0,0
09.08.2020 05:00:00 18,6 16,9 2 1 NNW 1017,5 20 -
09.08.2020 04:00:00 18,7 16,8 4 2 N 1017,7 20 0,0
09.08.2020 03:00:00 19,2 17,0 5 3 WNW 1017,9 20 0,0
09.08.2020 02:00:00 19,6 17,4 4 2 NNW 1018,2 20 -
09.08.2020 01:00:00 19,4 17,4 5 3 NNW 1018,5 20 0,0
09.08.2020 00:00:00 19,0 17,3 2 1 WZW 1018,6 20 0,0
08.08.2020 23:00:00 18,5 17,0 8 4 NNW 1018,6 25 -
08.08.2020 22:00:00 19,2 17,0 9 5 NNW 1018,2 20 0,0
08.08.2020 21:00:00 19,6 17,2 13 7 N 1018,0 20 0,0
08.08.2020 20:00:00 20,4 17,4 8 4 WNW 1017,8 20 -
08.08.2020 19:00:00 20,8 17,6 15 8 N 1017,9 20 0,0
08.08.2020 18:00:00 21,4 17,8 18 10 N 1018,3 20 0,0
08.08.2020 17:00:00 21,5 17,5 24 13 N 1018,8 20 -
08.08.2020 16:00:00 22,2 17,8 21 11 N 1019,4 20 0,0
08.08.2020 15:00:00 21,9 17,9 24 13 N 1019,7 20 0,0
08.08.2020 14:00:00 22,1 18,1 26 14 N 1019,9 25 -
08.08.2020 13:00:00 22,1 18,1 21 11 N 1020,1 20 0,0
08.08.2020 12:00:00 22,3 18,5 8 4 N 1020,4 20 0,0
08.08.2020 11:00:00 21,9 17,5 8 4 NNW 1020,5 25 -
08.08.2020 10:00:00 21,0 17,4 4 2 ONO 1020,5 20 0,0
08.08.2020 09:00:00 18,7 17,4 4 2 ONO 1020,5 20 0,0
08.08.2020 08:00:00 18,2 16,9 4 2 N 1020,5 25 -
08.08.2020 07:00:00 18,1 17,1 5 3 NNO 1020,2 20 0,0
08.08.2020 06:00:00 18,2 17,2 4 2 N 1020,4 20 0,0
08.08.2020 05:00:00 18,1 17,5 4 2 NNO 1020,6 20 -
08.08.2020 04:00:00 18,3 17,8 8 4 N 1020,9 20 0,0
08.08.2020 03:00:00 18,6 17,8 9 5 NNO 1021,1 20 0,0
08.08.2020 02:00:00 18,9 17,9 8 4 NNO 1021,5 20 -
08.08.2020 01:00:00 18,9 18,1 8 4 NNO 1021,6 20 0,0
08.08.2020 00:00:00 19,2 18,4 9 5 N 1021,7 20 0,0
07.08.2020 23:00:00 19,5 18,3 11 6 N 1021,5 20 -
07.08.2020 22:00:00 19,9 18,2 11 6 N 1020,8 20 0,0
07.08.2020 21:00:00 20,5 18,4 11 6 NNW 1020,3 20 0,0
07.08.2020 20:00:00 21,2 18,8 15 8 N 1020,0 20 -
07.08.2020 19:00:00 22,0 19,0 13 7 NNW 1019,9 20 0,0
07.08.2020 18:00:00 22,5 18,5 13 7 NW 1019,9 20 0,0
07.08.2020 17:00:00 23,0 19,2 16 9 NW 1019,7 20 -
07.08.2020 16:00:00 23,4 18,7 15 8 NW 1019,5 20 0,0
07.08.2020 15:00:00 23,5 18,2 11 6 NW 1019,3 20 0,0
07.08.2020 14:00:00 24,2 18,2 11 6 N 1019,1 25 -
07.08.2020 13:00:00 24,2 18,4 13 7 N 1019,2 20 0,0
07.08.2020 12:00:00 23,0 18,5 11 6 NNW 1019,1 20 0,0
07.08.2020 11:00:00 22,1 18,9 9 5 NNW 1018,8 25 -
07.08.2020 10:00:00 21,7 19,3 8 4 NNW 1018,3 20 0,0
07.08.2020 09:00:00 20,2 19,2 8 4 NNW 1017,7 20 0,0
07.08.2020 08:00:00 19,7 19,2 8 4 NW 1017,2 2,5 -
07.08.2020 07:00:00 19,8 19,3 9 5 NW 1016,7 19 0,0

tt = temperatuur
td = dauwpunt
ff = windsnelheid
dd = windrichting
ppp = luchtdruk
vv = zicht
rr = neerslag

Weerstations in de omgeving